Date,TemperatureHighF,TemperatureAvgF,TemperatureLowF,DewpointHighF,DewpointAvgF,DewpointLowF,HumidityHigh,HumidityAvg,HumidityLow,PressureMaxIn,PressureMinIn,WindSpeedMaxMPH,WindSpeedAvgMPH,GustSpeedMaxMPH,PrecipitationSumIn
2013-3-1,45.6,42.1,36.9,33.7,31.3,26.6,72,66,57,29.94,29.80,7,1,11,0.00
2013-3-2,38.9,35.2,31.7,26.8,25.5,23.1,74,67,59,29.95,29.87,4,1,10,0.00
2013-3-3,43.8,36.2,29.8,25.7,23.2,20.2,75,60,48,29.98,29.85,4,1,12,0.00
2013-3-4,46.8,35.8,29.5,26.0,21.9,18.7,75,57,43,30.09,29.98,6,1,12,0.00
2013-3-5,53.5,40.5,28.9,33.0,25.4,21.6,79,57,29,30.14,29.88,4,0,9,0.00
2013-3-6,38.5,34.7,33.8,34.5,33.4,32.6,97,95,81,29.87,29.65,6,1,11,0.31
2013-3-7,51.6,43.5,34.0,34.5,32.4,30.5,87,66,49,30.20,30.05,9,1,15,0.47
2013-3-8,51.1,43.8,37.4,33.8,31.4,29.1,75,62,51,30.32,30.18,9,2,15,0.00
2013-3-9,63.2,46.3,32.8,35.2,31.1,26.7,79,58,30,30.40,30.29,6,0,9,0.00
2013-3-10,65.0,48.4,30.7,38.9,31.6,27.0,93,58,24,30.39,30.26,5,0,7,0.00
2013-3-11,62.0,52.5,44.2,53.0,47.0,39.3,94,82,70,30.31,29.99,5,0,8,0.00
2013-3-12,60.1,54.8,43.1,57.6,48.7,34.7,98,81,62,30.02,29.74,8,1,12,0.84
2013-3-13,53.0,42.8,33.0,36.8,30.8,22.8,91,64,39,30.13,29.95,4,1,15,0.00
2013-3-14,48.2,39.7,33.2,25.5,22.7,19.4,67,51,37,30.20,30.08,9,1,16,0.00
2013-3-15,59.5,43.5,28.7,38.2,29.5,23.3,84,60,38,30.16,29.83,6,1,11,0.00
2013-3-16,62.7,48.7,39.4,51.0,40.1,35.0,85,73,56,29.97,29.68,4,0,9,0.00
2013-3-17,42.5,39.9,35.3,36.7,33.2,30.0,88,77,65,30.34,29.96,4,0,5,0.00
2013-3-18,39.5,37.7,33.1,38.1,32.9,26.4,97,84,61,30.39,29.95,4,0,7,0.34
2013-3-19,61.2,47.4,37.9,46.2,34.8,17.2,97,68,25,29.97,29.77,6,1,12,0.00
2013-3-20,54.6,46.7,36.9,26.6,21.5,16.9,49,37,30,30.05,29.82,5,1,13,0.00
2013-3-21,43.9,36.0,30.1,29.2,20.3,13.3,80,53,41,29.97,29.82,8,1,13,0.00
2013-3-22,50.7,37.2,25.7,27.8,20.9,14.5,71,52,38,30.06,29.93,6,1,13,0.00
2013-3-23,55.5,37.7,27.8,32.7,26.0,22.8,84,65,38,30.09,29.96,2,0,10,0.00
2013-3-24,44.3,38.7,31.9,34.3,28.2,24.8,95,67,51,30.07,29.72,4,0,7,0.04
2013-3-25,38.8,35.9,33.2,37.2,34.6,32.2,97,95,92,29.76,29.57,2,0,7,0.52
2013-3-26,50.6,40.4,32.8,38.3,34.8,32.0,98,82,51,29.93,29.76,6,0,13,0.01